Theta_e
364 365 363 364 362 356 351 347 321 331 327 305 306 310 311 321 322 320 319 323 321 329 333 336 335 335 330 329 332 333 334 330 330 317 316 335 353 353 355 355 356 356 356 357 359 358 358 362 363 364 365 365 365 363 362 363 364 364 364 364 365 365 365 364 364 365 365 366 367 367 367 366 367 366 366 365 366 365 364 364 365 365 366 366 366 366 366 366 366 366 366 366 365 365 364 364 364
356 355 358 358 357 353 341 338 323 319 312 306 309 313 314 319 320 318 319 322 324 328 333 334 334 335 336 335 335 334 333 336 336 335 340 348 352 353 356 356 357 356 356 357 358 358 359 362 363 363 364 363 364 365 364 366 366 366 366 366 365 364 364 362 363 364 364 364 364 364 364 366 366 366 366 366 364 364 364 365 365 366 366 366 366 366 366 366 366 366 365 365 364 364 364 364 364
348 350 350 355 354 352 344 338 319 307 304 302 306 312 317 314 315 320 323 325 329 332 334 334 335 335 335 335 331 329 326 340 340 341 340 349 345 349 355 357 357 357 357 358 358 359 360 362 364 364 365 364 364 365 366 367 366 366 366 366 365 364 365 364 364 365 365 365 364 364 364 364 364 365 365 364 364 363 365 366 366 366 366 365 366 366 366 367 366 366 365 365 365 365 365 364 364
351 349 344 348 339 350 332 329 324 306 305 304 305 314 316 317 318 323 326 328 329 331 331 329 327 336 334 330 332 338 335 335 342 341 339 344 347 352 354 356 359 358 358 358 358 359 359 363 364 365 366 366 366 366 367 367 366 366 366 366 366 366 366 366 366 365 364 363 365 363 364 363 364 365 365 366 366 366 366 367 366 366 366 366 366 367 367 366 367 367 366 365 365 364 364 364 364
350 349 350 347 339 334 332 324 313 309 305 308 304 312 313 314 316 321 325 328 330 330 329 329 328 335 337 335 337 331 333 341 343 347 345 350 354 354 355 357 357 357 358 359 359 359 360 363 364 365 365 367 366 366 366 366 367 367 367 367 367 367 367 367 366 366 366 367 367 366 365 365 366 365 365 364 365 367 367 366 367 366 366 367 366 366 366 366 366 366 366 365 365 364 364 364 363
347 344 348 349 335 343 330 314 310 307 311 313 310 313 317 318 320 324 327 331 333 334 334 332 329 330 332 334 339 334 342 334 343 345 348 349 354 355 356 359 356 357 359 359 359 359 360 364 364 365 365 367 367 366 366 366 367 367 367 368 367 366 367 367 367 367 367 366 364 367 367 367 366 365 365 366 366 367 367 367 366 366 366 366 366 366 366 366 366 366 365 364 363 362 362 363 362
341 340 342 344 339 340 319 310 307 308 310 315 312 313 314 315 318 321 322 325 330 332 334 330 333 332 328 335 339 344 347 347 344 346 351 353 355 356 357 356 356 357 358 358 358 360 361 364 365 365 366 367 367 367 366 366 367 367 367 367 367 367 367 367 367 367 367 367 367 367 368 368 367 366 367 367 367 367 367 367 367 366 366 366 366 366 366 366 365 365 364 364 363 363 362 361 361
349 334 336 324 322 321 317 310 309 311 312 316 317 314 315 316 317 319 321 324 324 326 331 334 335 332 330 339 329 344 348 350 349 352 353 353 354 355 357 357 356 356 357 357 358 359 366 364 365 365 366 367 367 367 366 366 366 367 367 367 366 367 367 367 367 367 367 366 368 367 367 365 365 365 367 367 367 367 367 367 366 366 365 365 365 365 364 363 363 363 363 363 363 362 362 360 360
345 334 334 327 315 317 308 307 311 315 313 316 316 323 327 319 320 318 320 324 327 330 331 334 335 328 330 333 333 341 345 350 352 354 352 353 354 355 357 357 355 356 357 357 358 361 362 364 365 365 366 367 367 366 367 366 366 366 367 367 367 367 367 367 367 367 367 366 366 366 364 365 366 366 367 366 366 365 365 365 364 365 365 364 364 364 363 363 363 362 361 361 361 360 360 360 360
336 328 322 321 320 309 309 310 309 312 312 316 316 318 318 321 323 325 324 326 329 331 332 336 336 329 333 329 333 339 342 350 351 351 353 354 355 356 355 356 357 357 357 358 358 359 360 366 365 366 366 367 368 367 367 366 366 366 366 367 367 367 367 366 366 366 366 366 365 366 366 366 366 366 365 365 365 365 364 364 364 364 364 364 364 363 364 363 364 364 365 364 362 359 358 359 361
336 334 329 318 311 310 309 309 311 313 315 319 320 322 323 323 323 322 323 325 331 329 332 335 331 331 332 332 334 344 348 350 350 348 353 354 355 355 355 357 359 359 357 358 358 360 362 362 367 366 367 367 367 367 366 366 366 366 366 366 366 366 366 366 366 365 365 365 365 365 365 365 365 365 364 364 364 364 364 364 364 364 364 364 363 363 363 365 364 363 363 363 362 362 362 361 360
324 321 323 313 313 313 312 311 311 313 317 317 315 320 322 321 320 319 321 322 328 330 330 334 329 335 330 331 333 344 346 348 348 351 353 355 354 355 357 359 359 359 359 359 360 360 361 363 364 367 367 367 367 367 366 366 366 366 366 366 366 366 366 365 365 364 365 364 364 364 364 364 364 364 363 364 363 364 364 363 363 364 364 364 362 363 362 364 363 363 362 362 362 360 361 361 361
323 322 319 317 313 313 315 315 314 316 314 316 316 321 324 322 320 321 323 326 328 328 328 334 335 336 327 329 337 342 342 346 349 352 353 354 355 355 357 357 358 358 359 360 359 360 362 362 363 364 365 367 366 366 366 366 366 366 366 366 366 365 366 365 365 364 364 364 364 364 364 364 364 364 363 363 363 363 363 363 363 363 363 362 363 362 363 363 363 361 362 361 361 361 361 361 362
321 322 320 317 319 313 312 312 315 312 312 318 322 324 324 323 325 324 324 322 325 326 332 336 336 335 330 333 334 336 340 346 348 351 353 354 355 354 354 356 357 358 358 358 359 360 360 361 362 362 363 363 363 364 366 366 366 366 366 366 366 366 365 365 365 364 364 364 365 365 365 365 365 365 364 365 364 363 363 362 362 361 362 362 362 362 361 364 364 363 362 362 361 361 361 362 362
319 324 322 318 313 312 314 310 314 314 316 320 323 324 324 327 325 324 323 321 324 332 336 340 337 333 326 329 329 335 341 346 348 350 351 352 352 352 353 355 357 357 357 358 359 359 359 361 361 362 363 362 362 361 362 364 366 366 366 366 366 366 366 365 365 365 364 365 365 365 365 365 365 365 365 365 363 363 363 361 361 361 361 362 362 362 361 363 364 363 362 362 361 361 362 362 362
322 319 316 313 310 309 312 313 317 315 312 320 323 324 323 323 326 324 326 328 327 335 335 328 337 331 335 333 334 340 344 346 349 350 350 350 351 352 352 353 355 357 357 357 357 358 358 360 361 362 361 361 361 361 362 362 365 366 366 366 366 366 366 365 366 365 365 365 365 365 365 365 364 364 365 362 362 364 364 361 362 361 361 362 362 362 362 363 363 363 363 363 362 363 362 363 362
324 320 311 313 310 311 313 313 315 313 318 321 324 323 321 320 326 329 332 331 326 328 329 331 333 339 335 337 342 344 345 349 349 348 348 348 349 348 349 351 353 355 357 357 357 357 359 359 360 361 361 362 361 362 362 362 364 367 366 366 366 366 365 365 365 365 366 365 365 365 365 364 362 362 361 361 363 363 364 363 363 362 362 361 362 362 363 363 363 363 364 364 364 363 363 364 363
322 314 312 310 312 313 317 315 319 321 319 322 324 324 322 319 324 326 332 330 328 327 327 332 337 338 339 343 345 346 346 346 347 345 345 344 346 345 346 348 350 350 352 353 356 357 358 359 360 360 361 361 361 363 364 364 365 365 362 362 363 364 364 365 365 364 366 362 365 364 363 364 363 363 363 365 364 365 363 363 363 362 363 363 361 362 363 363 363 363 363 363 364 364 364 359 359
318 314 311 307 315 317 321 321 322 321 321 323 324 325 326 326 328 329 325 325 325 327 330 333 332 336 339 341 344 344 344 345 346 345 344 343 344 344 345 346 347 350 351 353 353 356 358 358 360 360 360 361 361 361 363 364 363 362 362 363 364 366 366 366 363 365 362 362 362 363 365 363 362 365 363 365 365 364 364 362 363 364 363 363 361 361 361 363 364 363 363 362 362 362 359 357 356
317 312 309 312 318 320 327 323 323 325 325 324 324 326 328 328 329 333 326 325 328 326 326 330 330 331 335 339 341 342 343 344 345 345 344 344 345 346 345 346 347 349 351 353 353 357 357 358 360 360 361 361 360 360 362 363 362 362 362 363 363 363 363 365 362 362 361 360 361 363 363 362 362 362 368 365 364 365 363 363 363 363 363 364 363 362 362 362 363 365 365 364 362 362 356 357 357
316 313 310 312 316 318 322 324 324 324 327 325 323 326 327 328 329 330 327 325 326 328 331 330 330 332 335 338 340 343 343 342 342 343 343 343 344 346 347 348 347 349 352 354 356 356 357 359 360 360 362 361 360 361 358 360 361 362 361 361 361 362 362 362 360 361 361 361 360 364 360 362 362 361 360 362 361 362 361 359 358 355 356 354 359 356 358 359 358 358 359 361 357 357 357 356 356
319 312 315 317 318 316 321 324 325 324 324 323 324 323 325 329 328 328 328 323 321 328 332 334 334 335 336 337 340 342 342 342 341 340 340 341 342 345 347 348 350 351 353 352 354 356 358 359 360 360 361 362 359 360 357 361 361 359 360 358 358 362 359 360 361 361 360 359 359 362 362 362 360 358 359 359 357 354 356 359 357 355 353 354 357 356 353 353 351 352 356 357 357 357 357 356 354
309 317 317 320 321 318 321 324 323 323 323 324 324 326 329 327 325 328 329 333 328 334 334 335 336 337 338 339 340 339 340 339 341 340 340 340 343 345 346 347 347 348 351 352 354 355 357 358 360 360 359 360 358 360 360 362 360 359 360 359 357 357 360 359 361 360 358 357 357 360 359 359 357 357 357 357 354 353 352 355 355 356 352 352 355 355 351 351 349 350 352 355 355 353 354 354 354
316 312 316 318 321 319 320 321 324 325 324 324 328 329 327 328 324 330 328 330 333 334 336 336 337 337 337 337 338 338 338 338 340 342 343 342 343 344 346 345 345 348 348 352 353 354 356 356 359 360 359 360 359 359 359 359 357 357 356 363 360 362 360 358 358 357 357 355 357 358 362 359 358 354 354 352 354 352 352 352 353 351 352 352 358 358 354 351 352 354 355 352 352 352 352 352 351
314 313 317 319 321 321 320 321 320 322 326 327 328 326 326 329 328 330 328 332 334 334 336 336 336 335 335 336 336 337 337 339 339 340 342 342 344 346 346 344 344 344 347 350 351 352 354 358 359 359 360 360 359 361 360 360 356 355 359 358 357 365 359 359 358 356 354 354 355 358 362 359 356 353 352 353 351 348 352 353 352 351 351 351 353 352 353 353 351 352 353 353 351 349 349 349 349
318 318 320 319 319 320 320 320 321 325 326 326 324 324 327 329 332 329 330 331 334 335 334 334 334 333 332 334 335 336 336 337 338 337 339 339 342 342 343 343 344 344 346 348 350 350 352 358 358 359 359 360 359 361 355 356 356 356 358 356 360 367 360 358 357 354 354 354 354 355 361 358 354 350 351 350 348 347 348 352 352 352 353 352 354 352 353 354 351 349 350 352 354 349 348 349 349
320 319 319 319 319 319 320 322 324 325 324 325 322 322 324 328 327 320 330 332 333 333 332 333 332 331 333 334 335 336 337 336 335 335 338 337 339 338 342 343 343 343 346 346 349 350 354 356 357 358 358 365 360 356 353 352 353 351 357 359 358 358 357 357 355 354 354 354 354 356 359 363 355 352 353 349 348 348 349 350 352 354 353 354 356 354 356 355 353 353 353 352 353 352 350 349 351
318 319 319 319 320 321 320 320 322 324 322 324 323 321 324 327 327 322 328 331 333 330 330 331 331 331 332 334 335 337 338 338 335 336 334 334 337 337 340 341 342 344 344 345 347 350 352 353 354 357 359 362 360 358 360 353 351 350 353 354 354 354 356 354 354 352 354 351 353 355 357 360 363 354 353 351 349 348 349 351 352 353 354 356 358 355 354 355 352 351 351 350 351 353 351 349 351
318 319 314 316 319 317 319 317 320 323 320 325 325 321 320 323 321 326 329 332 332 331 330 330 330 332 333 334 335 335 340 336 337 336 336 335 338 338 340 343 343 342 345 346 347 349 347 350 352 355 360 361 361 358 358 359 358 356 353 353 350 352 351 352 351 350 350 351 352 356 355 357 362 356 353 352 352 349 351 353 355 358 358 358 359 358 357 354 352 351 350 352 350 349 348 348 350
320 318 314 313 315 313 319 321 321 320 323 326 324 308 311 319 324 327 330 330 331 329 328 330 330 333 334 334 334 335 339 337 336 338 337 336 341 338 341 343 345 343 344 347 348 348 349 350 353 355 359 360 359 360 359 359 358 357 357 353 355 351 351 351 352 350 351 352 353 358 359 361 362 358 356 356 354 354 355 357 357 356 355 357 355 357 358 356 353 351 350 350 352 351 347 347 347
311 315 314 308 308 308 319 320 319 319 323 324 323 309 312 319 324 328 330 331 329 326 328 329 331 334 335 334 334 336 335 339 338 342 341 339 342 339 341 343 345 346 347 347 347 346 353 350 352 354 361 359 363 359 361 360 358 360 355 357 360 356 352 351 350 350 352 352 354 356 357 362 363 352 350 353 356 357 354 352 355 356 355 352 352 353 355 355 355 353 351 348 347 347 346 347 347
312 308 304 311 309 310 318 321 319 316 320 323 320 310 313 319 323 328 330 330 329 326 328 329 331 334 334 333 333 336 335 342 340 341 341 340 342 339 342 343 347 348 345 346 352 347 353 356 357 355 360 359 359 360 360 357 361 363 361 370 363 358 358 354 354 354 353 355 356 350 353 357 348 346 347 349 345 352 356 354 357 353 352 351 350 352 355 353 354 354 353 351 346 345 346 345 346
312 308 308 308 310 310 314 316 319 322 321 321 321 311 316 317 323 327 329 330 329 327 328 329 331 333 332 332 333 335 335 338 343 340 340 339 348 344 351 350 350 350 349 348 351 351 355 359 358 356 358 358 359 361 359 361 363 364 359 360 359 360 358 360 359 361 357 352 354 356 356 359 348 348 348 353 349 349 351 356 356 357 357 352 351 351 352 354 354 355 353 353 349 345 344 345 346
307 310 307 311 309 311 309 315 319 321 320 315 318 316 317 319 322 325 328 330 329 327 328 329 330 330 331 332 333 334 335 337 339 339 342 348 349 350 353 359 355 353 355 353 352 355 354 355 358 357 357 358 359 359 358 358 361 362 360 361 367 360 361 361 361 361 360 360 359 359 360 354 350 349 351 352 353 353 356 356 356 356 356 355 353 351 351 353 353 353 351 351 351 347 346 345 345
304 305 306 309 311 312 314 311 316 319 320 316 315 317 318 320 322 323 326 330 329 327 327 328 329 331 332 332 333 335 336 338 341 342 346 349 349 351 351 353 355 355 354 355 354 359 357 355 357 364 356 358 359 360 361 361 361 361 361 360 361 360 364 363 362 360 359 358 357 356 356 356 354 349 354 352 353 354 356 355 354 354 355 354 353 353 352 351 353 351 349 350 349 350 349 349 348
310 309 308 310 308 310 311 316 319 319 315 314 313 313 316 320 321 323 324 328 327 325 327 329 330 332 333 333 335 336 337 340 342 344 348 349 351 352 352 353 355 356 355 357 358 358 358 356 356 360 356 357 359 361 360 359 360 357 359 359 357 360 359 360 362 362 360 357 359 359 356 352 352 354 355 355 357 357 356 355 355 355 354 353 350 349 348 349 350 349 348 348 347 348 347 347 346
314 312 310 310 310 312 315 318 320 321 316 312 314 315 317 319 320 322 323 325 324 325 327 327 329 331 333 333 334 336 338 340 344 346 349 350 351 352 352 353 354 354 356 356 357 357 358 357 357 356 358 360 357 358 358 355 355 353 353 354 355 358 357 358 357 358 357 358 355 357 356 355 357 357 359 358 357 360 356 355 355 354 354 352 348 348 349 350 349 347 347 345 344 344 345 345 346
313 311 310 308 311 308 315 316 319 319 315 312 315 314 316 317 319 321 323 323 322 323 326 326 329 332 332 332 333 336 338 342 344 345 347 349 349 352 351 352 355 351 355 355 356 358 357 358 357 359 363 361 362 361 360 361 359 356 353 352 356 355 355 353 352 352 353 357 355 358 357 356 358 358 359 357 357 355 355 353 352 351 351 351 350 351 349 351 348 347 346 343 345 342 341 345 346
310 310 310 307 307 313 316 317 319 319 315 312 315 313 314 317 319 321 321 323 323 325 326 326 328 329 329 330 334 336 335 339 342 345 346 347 349 351 350 351 352 353 355 355 358 360 360 360 359 359 361 362 362 362 359 357 360 361 357 357 353 354 355 356 352 353 355 349 351 355 357 358 359 358 357 357 356 355 354 351 351 351 349 350 347 347 348 347 343 344 343 340 338 340 343 345 343
307 306 305 304 309 311 305 314 318 318 314 312 315 312 313 317 318 320 322 322 323 325 327 327 328 327 327 331 336 335 333 338 339 342 345 345 347 348 348 350 350 354 355 355 358 359 359 359 361 359 358 357 357 362 365 361 362 362 358 359 355 349 345 351 346 349 346 343 341 343 346 345 347 347 347 347 346 347 347 345 345 346 345 347 345 345 345 344 343 342 341 340 341 338 339 339 344
308 308 306 305 309 312 311 312 316 316 315 318 315 312 311 315 314 316 320 322 322 324 326 326 328 328 330 335 336 336 334 337 338 339 342 343 343 346 347 349 350 352 354 355 357 358 360 359 361 359 359 358 358 362 362 360 362 357 355 353 353 351 350 346 342 339 340 344 339 340 344 346 348 347 348 347 348 345 345 345 344 344 345 345 346 345 345 346 344 343 342 341 341 340 338 337 340
303 308 308 307 310 311 313 314 312 308 307 312 313 301 304 312 315 315 317 318 319 321 321 323 326 327 330 332 334 335 335 337 337 338 339 340 342 344 346 348 349 352 354 356 360 360 360 359 361 359 359 360 359 358 360 359 359 347 342 340 341 339 337 339 335 335 336 337 339 343 345 345 345 345 344 344 343 347 344 345 345 344 345 346 347 346 343 343 344 344 344 344 341 341 338 335 333
301 303 309 309 308 309 313 312 310 302 300 309 316 303 300 310 312 314 320 319 316 319 320 322 324 325 328 330 334 333 333 335 337 339 340 340 340 342 345 346 349 351 355 359 360 359 360 360 360 359 358 356 357 350 350 348 346 347 346 343 339 335 335 346 343 340 337 342 343 342 343 343 344 341 344 344 345 344 346 345 345 346 346 346 348 344 342 342 344 344 347 344 342 343 336 331 332
300 309 309 309 308 307 311 312 309 304 312 311 314 310 304 302 310 316 318 318 319 322 319 321 324 324 326 328 334 334 335 336 337 338 339 340 339 342 344 346 348 353 357 359 360 359 358 358 358 357 355 351 344 344 347 345 339 345 338 339 342 337 338 340 338 339 348 349 340 341 340 342 346 345 345 344 343 344 346 345 345 345 346 346 350 344 342 342 345 346 347 345 344 341 337 334 334
304 309 310 308 309 308 310 311 308 307 306 299 307 312 304 303 310 316 318 314 317 318 320 319 323 324 325 326 331 332 335 336 337 337 338 337 339 342 345 345 348 355 358 358 359 359 358 357 354 349 345 343 341 344 343 349 343 343 343 339 343 347 341 343 344 345 341 343 338 342 343 343 343 344 342 343 345 345 347 343 344 344 343 344 353 345 345 344 343 342 341 339 340 340 338 338 337
308 311 311 310 310 310 308 307 306 306 302 297 303 307 298 300 311 314 316 314 314 317 320 319 323 323 325 326 328 331 334 336 338 337 337 337 340 342 346 347 348 353 356 358 357 358 357 352 347 343 342 341 343 345 345 344 346 348 341 341 339 342 340 343 339 339 339 346 339 341 342 343 341 338 341 344 342 344 344 345 343 342 341 344 348 345 344 342 341 341 342 341 340 339 339 338 337
313 311 308 308 306 305 306 305 304 300 297 298 307 308 305 297 309 313 312 313 317 318 319 320 323 324 325 326 326 331 332 336 336 336 337 337 340 344 347 346 348 352 353 355 356 355 351 346 344 341 342 342 345 345 343 342 341 341 340 340 341 340 343 341 338 338 340 341 339 339 340 339 338 340 342 341 343 344 346 346 341 342 344 347 345 343 343 343 343 341 342 341 341 341 338 337 338
311 306 304 304 303 306 303 305 304 295 291 300 305 304 307 296 304 313 318 319 320 320 319 319 321 322 324 325 326 330 332 335 335 335 335 336 338 345 346 345 348 350 352 354 354 350 346 343 342 341 343 344 345 346 343 343 340 340 346 342 338 341 339 338 334 334 337 336 337 337 339 339 338 341 341 340 343 341 343 340 344 342 343 342 342 342 343 343 343 343 341 339 338 339 338 337 335
308 304 304 300 299 297 294 295 293 292 291 301 304 306 302 300 308 316 318 320 321 322 322 321 321 322 324 326 327 329 332 335 334 334 333 336 339 344 344 345 348 349 351 352 350 346 343 343 342 342 344 345 345 342 344 343 343 341 343 341 344 343 342 338 338 336 337 338 336 336 336 336 338 336 337 339 340 340 341 338 340 339 339 341 343 343 343 344 344 341 341 339 338 337 337 336 335
303 301 300 297 294 294 288 293 295 295 302 303 303 306 299 305 311 319 319 321 324 324 324 324 323 323 324 326 327 328 331 334 333 333 333 336 339 344 344 346 347 349 351 351 347 343 342 343 343 342 345 344 345 342 344 343 343 346 344 343 343 340 339 341 343 335 340 338 339 334 335 336 336 336 336 338 340 341 341 341 342 341 340 340 342 342 343 342 342 340 339 338 338 339 339 338 337
303 306 304 301 299 297 290 293 290 292 294 301 306 301 297 299 302 315 321 324 325 325 324 324 325 325 326 327 328 329 330 332 333 333 334 337 340 343 344 347 347 349 351 350 344 342 342 342 344 343 344 343 344 343 344 345 344 347 345 339 341 341 343 337 342 344 337 335 338 337 336 337 336 336 338 339 342 340 341 342 342 341 341 340 341 343 346 342 342 340 340 339 339 338 338 338 335
306 307 308 304 300 304 295 298 298 299 299 299 303 301 304 304 311 319 321 323 322 324 323 324 324 325 326 326 327 327 330 331 333 333 335 339 342 344 345 348 348 350 351 348 342 342 342 342 344 343 344 343 345 345 345 346 345 345 343 342 342 343 347 342 344 343 339 337 338 338 335 333 334 338 339 340 340 340 340 340 341 340 340 341 340 341 340 339 340 337 336 336 335 342 337 336 335
303 305 299 301 307 306 302 307 306 306 303 297 309 309 312 311 312 315 318 318 319 320 321 323 323 324 325 325 327 327 328 331 333 334 336 340 342 345 346 348 349 350 350 346 342 342 343 343 343 343 344 343 344 346 345 346 346 344 342 342 340 342 339 337 335 335 335 340 340 335 335 337 338 337 339 341 340 340 339 339 338 340 340 340 340 339 340 339 339 337 336 335 336 339 338 336 337
306 300 302 309 311 309 307 297 301 297 292 296 301 298 299 302 298 311 315 315 316 316 317 323 323 324 324 325 326 326 327 332 334 335 338 341 342 345 346 349 350 351 350 344 342 343 344 345 344 345 343 342 343 346 345 345 345 343 343 341 339 339 337 337 337 337 338 338 338 336 334 335 336 341 338 339 337 338 338 345 338 338 339 339 338 338 338 338 338 338 338 338 339 338 336 337 338
305 305 312 304 296 297 305 302 293 295 293 295 297 300 302 302 304 308 308 310 310 312 318 321 321 323 325 327 327 327 331 332 334 334 339 340 342 344 346 349 351 351 350 345 344 345 345 346 345 347 344 344 344 346 346 346 345 345 344 341 340 339 338 338 338 339 341 335 335 334 334 336 338 337 340 339 337 337 336 337 337 337 337 338 339 338 339 338 337 336 337 337 337 337 336 335 336
312 311 307 310 304 301 298 300 300 298 294 296 295 301 298 313 306 309 309 311 312 311 315 318 321 324 328 328 328 329 333 333 334 336 340 341 343 345 347 349 350 350 349 345 345 346 347 347 346 346 346 344 346 345 347 343 344 344 344 342 342 339 340 338 338 337 335 334 334 334 335 334 332 337 337 337 334 334 335 335 334 334 335 336 337 338 338 337 337 336 337 338 338 337 336 335 335
302 304 302 304 305 309 305 305 300 296 293 291 293 294 301 307 317 312 312 313 313 313 313 317 318 321 326 328 329 330 333 334 335 337 340 340 342 346 349 350 351 351 349 346 346 346 347 348 346 347 345 345 345 345 345 343 344 343 343 341 341 340 339 339 339 338 336 336 335 338 334 333 336 335 336 335 334 335 336 337 335 336 335 335 336 336 337 337 336 336 337 337 336 335 334 333 335
304 301 300 301 301 301 296 294 305 303 295 291 293 296 301 314 323 320 317 318 319 319 317 316 316 319 322 324 328 333 333 334 336 337 340 341 342 347 351 351 350 349 347 345 345 346 346 347 347 346 347 347 345 345 344 343 344 343 342 341 340 339 339 338 337 337 337 338 337 336 336 335 333 334 337 336 336 336 336 334 334 334 335 336 336 336 338 337 336 335 335 338 336 334 333 332 332
Wind_Speed
4 5 4 6 4 4 3 4 2 1 0 8 5 6 7 9 7 8 9 9 13 13 13 16 18 14 11 9 15 13 16 2 3 5 6 4 5 9 7 9 10 10 11 10 7 7 7 8 14 15 17 16 17 17 16 15 19 20 20 21 21 20 20 21 21 19 19 18 17 16 16 16 16 15 15 14 14 13 12 12 12 12 12 12 12 12 12 12 12 12 12 11 11 11 11 11 11
6 7 8 6 5 3 1 3 1 3 1 7 9 5 7 8 9 10 14 14 11 11 14 15 18 19 18 13 9 21 17 12 10 8 7 6 8 5 8 10 11 11 10 9 7 7 7 9 14 14 14 17 17 16 18 18 18 18 19 19 20 20 19 19 19 19 18 18 18 17 17 17 16 15 15 14 13 13 13 12 12 12 11 11 11 12 11 11 11 11 11 11 11 11 10 10 10
6 6 5 7 5 4 1 1 2 4 7 8 6 7 4 8 9 11 13 13 17 18 18 18 17 16 16 16 18 16 5 10 16 13 8 9 11 6 10 10 11 10 11 8 8 7 6 8 13 16 16 17 18 18 17 17 18 17 18 18 18 18 18 18 18 18 18 17 18 18 17 17 17 16 15 15 15 14 13 13 12 12 12 11 11 11 11 10 10 10 10 10 10 10 9 9 8
4 5 3 4 2 4 1 2 4 4 5 5 6 5 5 6 11 13 13 14 11 11 12 14 14 9 21 20 13 15 10 7 9 12 9 7 6 12 11 12 12 10 9 8 8 8 6 9 12 14 15 15 17 18 17 17 17 17 17 17 17 17 17 17 17 17 17 17 17 17 17 16 17 16 16 15 15 14 14 13 12 12 12 12 11 11 10 10 9 9 9 9 9 9 8 8 7
4 4 5 3 1 2 1 2 1 3 6 2 7 8 8 9 12 13 12 12 15 16 14 12 13 13 16 15 6 4 7 10 9 6 8 7 10 11 12 12 11 10 10 8 7 8 8 15 14 15 15 15 16 16 17 16 16 16 16 16 16 16 16 15 15 15 15 16 15 16 16 16 15 15 15 14 14 14 13 13 13 12 12 11 11 10 10 9 9 8 8 8 7 8 7 7 6
5 4 4 3 1 0 4 3 6 5 4 5 5 5 6 10 12 13 17 18 18 18 15 12 12 13 12 10 5 8 12 7 10 8 11 10 15 16 14 12 12 11 11 9 8 7 7 14 15 15 15 16 16 16 16 16 16 15 15 15 15 15 14 15 14 14 14 14 14 14 14 14 14 14 14 14 13 13 13 12 12 12 11 11 10 9 9 9 8 8 7 7 7 6 6 6 5
4 5 2 1 3 1 2 2 7 8 9 7 6 8 11 9 11 13 14 14 15 17 14 16 17 16 13 8 10 8 7 13 9 10 10 14 15 16 15 13 12 13 12 9 8 8 10 15 15 15 15 14 15 15 15 15 15 15 15 14 14 14 13 13 13 13 13 14 13 13 13 13 13 13 13 13 12 12 12 11 11 11 10 10 10 9 9 8 8 7 7 6 6 5 4 3 4
5 3 0 0 2 2 1 5 5 2 6 6 8 12 10 10 11 13 15 13 9 10 14 15 15 19 17 8 7 7 15 8 12 13 16 15 15 15 13 12 12 13 12 10 9 8 14 16 15 15 14 13 14 15 15 15 15 14 14 14 13 13 12 12 12 12 12 12 12 12 12 12 12 12 12 12 11 11 11 10 10 10 9 9 9 8 8 7 7 6 6 6 5 4 3 3 2
4 3 2 1 3 2 3 6 7 4 6 8 12 13 13 13 11 12 16 15 16 16 17 16 11 19 10 15 10 12 13 16 14 16 16 16 15 14 11 13 13 12 12 10 9 8 9 16 16 16 15 14 15 15 14 15 14 14 13 13 13 12 12 11 11 11 11 12 11 11 11 11 11 11 11 11 10 10 10 10 9 9 8 8 7 7 7 6 6 6 5 4 4 3 3 2 2
2 4 3 1 0 5 5 2 2 3 5 5 6 7 11 9 14 15 15 17 17 19 17 16 14 23 17 17 14 12 12 17 17 16 16 16 16 14 14 13 14 16 13 11 9 9 8 16 16 15 15 13 14 13 13 13 14 13 13 13 12 11 11 11 11 11 11 11 11 10 10 11 11 11 10 10 10 9 9 9 8 7 7 7 7 6 6 6 5 5 5 4 3 1 2 2 4
2 2 2 3 6 6 4 7 3 4 8 7 6 9 14 14 13 14 14 16 17 18 19 18 17 18 15 13 10 12 19 19 18 18 17 16 16 16 13 13 13 14 13 13 11 8 8 8 16 15 13 13 13 13 13 13 13 13 12 12 12 11 11 11 11 11 11 10 10 10 10 10 10 10 9 9 8 8 8 7 7 6 6 6 6 5 5 5 5 3 3 3 2 2 1 1 1
2 1 4 3 2 2 1 2 5 6 6 3 7 10 9 16 14 14 16 17 17 18 15 8 11 16 17 13 9 8 16 17 16 16 17 16 12 16 14 11 13 13 14 13 12 9 8 7 7 13 14 12 12 13 12 13 13 13 12 12 12 11 11 10 10 10 10 10 10 9 9 9 9 9 9 8 8 7 7 7 6 5 5 5 5 5 4 5 4 3 3 2 2 2 2 2 2
6 3 5 2 2 5 2 2 2 3 5 4 5 8 9 11 13 15 13 14 14 17 15 16 17 12 15 12 10 14 13 17 16 15 15 12 12 12 12 13 13 14 13 12 11 10 9 7 7 7 11 15 14 14 13 13 13 12 12 12 11 11 11 10 10 10 10 10 9 9 9 9 9 8 8 7 7 6 6 5 5 5 4 5 5 4 5 4 4 3 3 3 3 3 3 3 4
6 4 7 2 1 1 2 1 5 2 5 4 7 4 5 8 14 14 14 15 14 13 16 18 13 15 17 13 11 12 12 15 19 17 13 15 13 12 14 12 13 13 13 12 11 10 9 8 7 8 9 8 7 11 13 13 13 12 12 11 11 11 11 10 10 10 10 9 9 9 9 9 8 8 8 7 7 6 6 5 5 5 4 4 4 4 4 5 5 5 5 5 5 5 5 5 5
4 6 3 2 1 2 2 4 4 2 1 6 6 7 5 10 16 12 13 15 13 13 14 16 16 11 10 13 11 12 14 18 18 16 15 14 14 13 14 13 12 11 11 12 12 11 10 9 7 7 7 6 6 5 4 9 13 12 12 11 11 11 10 10 10 9 9 9 9 8 8 7 7 7 7 7 6 6 6 5 4 5 5 5 5 5 4 5 5 6 6 6 6 6 6 6 7
5 5 3 4 2 4 4 5 7 6 3 5 6 10 11 12 13 13 11 9 11 15 16 9 11 9 14 11 16 18 18 17 16 15 14 15 12 10 12 12 11 10 9 11 10 8 9 9 7 6 5 5 5 5 5 5 10 12 11 11 11 10 10 10 9 9 9 8 8 8 7 4 5 4 6 4 6 6 6 5 6 6 6 5 5 5 5 6 7 6 7 7 7 7 7 7 8
5 2 5 2 9 5 2 3 2 0 6 8 10 8 10 10 9 10 12 12 14 14 9 10 10 16 16 14 19 18 16 15 14 15 13 9 9 9 8 8 9 9 8 9 8 8 9 9 9 6 6 7 6 5 5 5 7 11 10 10 10 9 9 8 8 8 7 7 6 6 6 2 3 3 3 3 6 3 5 7 7 7 7 6 6 7 7 7 7 7 7 7 8 8 7 8 8
4 5 4 2 5 7 7 6 8 10 7 8 10 11 11 9 8 7 8 10 10 16 15 13 14 14 17 19 18 17 16 18 16 14 12 10 7 8 8 8 8 8 8 8 9 9 9 9 9 8 7 8 7 6 4 4 5 8 4 4 4 5 6 7 5 3 5 2 7 4 3 2 2 2 2 5 2 4 5 9 9 8 7 7 6 6 7 9 9 9 8 8 9 9 10 4 3
1 2 4 7 13 7 10 10 9 6 8 7 10 10 10 10 7 4 6 9 14 16 15 19 20 18 17 18 20 17 16 17 17 15 14 12 9 9 8 7 8 8 7 7 8 10 8 8 8 8 8 8 8 7 5 4 4 4 4 4 4 5 4 4 3 4 3 3 3 3 4 2 2 2 2 3 3 5 4 8 8 7 7 6 7 7 8 9 10 10 10 9 8 10 5 3 4
5 2 2 7 10 8 1 8 10 3 11 9 10 12 12 9 4 3 10 15 15 15 14 15 18 19 16 16 16 16 16 15 14 14 14 11 12 11 10 8 8 8 8 7 8 8 9 7 8 7 8 7 7 6 6 6 5 4 4 4 5 5 4 4 4 3 3 3 3 1 2 3 2 3 4 5 5 2 2 5 7 7 3 4 6 5 6 8 11 12 12 10 6 2 2 4 4
1 4 2 2 6 14 11 9 9 7 10 10 9 13 14 11 7 5 12 15 13 12 14 19 19 19 18 16 16 15 16 15 14 13 12 9 10 9 8 8 8 8 7 7 6 7 9 9 7 8 7 7 6 6 6 5 6 5 4 5 5 4 4 4 3 3 3 3 3 3 3 3 3 3 2 1 1 1 0 0 2 2 1 1 3 3 4 1 1 2 4 5 3 3 3 4 4
0 3 7 7 6 7 11 13 6 9 9 8 9 10 11 10 10 8 6 8 9 12 14 15 17 18 18 18 16 14 14 14 14 14 13 12 11 9 9 7 8 8 8 7 6 7 8 9 8 8 8 6 6 6 7 6 7 4 5 4 3 2 4 4 4 4 3 3 3 3 4 3 3 3 2 2 1 1 2 0 1 1 1 1 2 4 2 1 2 2 4 5 4 4 4 3 2
4 5 4 5 5 7 7 11 6 7 7 11 11 14 11 7 6 5 9 4 10 16 17 16 16 15 16 15 16 16 15 14 14 14 14 14 10 12 11 8 8 9 8 8 7 5 8 9 9 9 8 7 8 6 6 6 5 5 5 4 4 3 4 4 4 4 4 3 3 2 2 3 3 4 3 2 2 2 1 1 2 3 3 4 3 4 4 3 3 5 5 5 4 3 1 1 1
7 5 5 5 7 9 5 6 8 8 8 12 10 10 13 11 8 4 9 5 16 17 17 17 15 15 14 15 14 15 14 13 13 13 13 12 12 13 12 10 8 8 7 10 8 7 8 8 10 9 8 8 7 7 8 6 6 7 6 5 4 5 5 5 4 4 3 3 3 3 2 3 4 4 3 2 2 2 3 4 4 4 4 4 3 3 4 4 5 5 4 2 1 1 1 2 1
5 5 3 8 8 5 6 9 9 10 11 11 12 11 10 10 7 5 8 12 17 17 16 16 15 14 12 12 13 12 11 11 13 15 11 9 12 12 13 9 9 7 9 9 9 8 9 8 9 8 8 6 5 7 5 6 5 6 4 5 5 7 5 5 5 4 4 3 2 2 3 4 4 4 4 3 3 2 3 4 4 4 4 4 3 4 3 3 2 2 2 2 3 2 3 3 3
5 11 8 6 7 7 7 4 8 12 10 13 14 12 9 8 11 9 8 15 16 16 15 14 14 13 12 11 11 9 8 9 11 9 10 9 12 12 14 11 10 8 9 9 9 8 7 9 9 7 9 6 6 6 5 6 5 5 4 5 4 4 3 5 5 4 3 4 4 4 5 5 5 4 4 4 4 4 5 4 4 5 5 4 3 4 4 3 3 4 3 2 4 4 4 5 4
9 8 9 7 8 8 4 12 11 12 12 13 12 9 9 5 4 8 10 14 16 15 14 13 12 12 11 10 11 9 7 8 11 7 9 7 8 9 11 11 11 10 10 9 9 8 7 10 9 8 8 6 5 7 7 6 6 7 6 2 2 2 3 4 2 3 3 4 5 6 6 5 5 5 5 5 4 5 4 5 5 4 4 4 5 5 4 4 4 4 4 4 4 5 5 4 4
6 12 8 8 5 7 10 10 14 12 11 13 12 12 9 8 5 8 11 12 13 15 14 13 10 10 9 11 9 8 5 7 9 7 12 7 5 8 10 10 10 10 10 9 8 9 9 11 10 10 10 8 7 6 10 9 6 4 6 5 1 7 3 5 6 5 5 5 5 6 6 4 5 6 5 4 3 3 3 2 2 2 4 4 5 5 5 4 5 4 3 3 3 3 3 2 3
10 11 10 6 5 8 8 11 8 9 11 14 11 12 11 7 8 9 12 12 13 13 13 12 12 8 11 10 9 6 4 8 6 7 10 8 5 7 8 10 11 9 7 10 10 10 11 10 10 9 10 8 7 7 6 9 10 10 8 8 7 9 8 6 5 7 9 8 8 6 6 7 5 5 4 4 3 2 2 3 4 4 4 4 4 5 5 4 4 3 3 3 2 1 2 3 3
10 6 8 8 6 7 7 9 11 9 10 17 12 6 5 8 9 9 11 12 14 13 10 11 8 9 10 10 7 5 4 6 7 6 8 9 4 7 8 9 11 9 7 7 9 9 9 8 8 8 9 9 6 4 6 6 6 6 9 12 15 12 7 5 5 4 3 2 3 2 2 4 5 4 4 4 3 3 4 5 4 4 3 1 1 2 3 3 4 3 4 3 4 4 4 4 3
6 5 7 3 6 4 6 6 9 9 10 17 11 8 6 10 9 9 8 12 12 10 10 10 10 11 9 9 6 4 7 4 6 6 8 9 6 7 4 7 9 9 8 8 10 9 7 7 9 7 10 8 7 4 5 5 5 5 7 6 6 9 12 10 8 5 4 3 2 4 4 5 1 9 9 8 4 4 4 3 4 5 3 3 3 3 3 2 3 4 3 4 4 4 4 4 3
5 5 4 3 5 5 9 6 9 7 6 11 7 6 8 10 11 8 7 9 11 9 9 10 11 11 10 8 7 4 7 3 6 6 10 8 6 8 5 6 8 9 10 8 7 7 4 5 8 9 10 10 7 6 5 4 3 3 4 3 4 3 3 3 5 8 7 4 3 6 7 4 11 3 2 3 1 7 5 4 4 3 3 3 4 3 3 4 4 5 4 4 4 5 4 4 4
3 7 4 4 2 2 7 9 6 11 6 5 2 6 10 7 10 11 7 9 11 8 10 9 12 13 10 10 9 5 8 5 4 6 9 8 4 6 7 6 8 9 7 8 7 5 5 5 6 9 10 9 7 6 5 4 3 2 2 0 1 2 2 1 2 3 7 10 10 8 6 4 7 5 4 4 4 5 7 5 4 3 3 4 4 4 4 4 3 4 4 4 4 5 4 4 3
2 5 3 7 6 1 1 9 3 10 6 4 5 9 8 10 12 12 10 9 10 7 9 10 10 9 10 10 8 8 8 6 4 5 7 8 8 8 7 7 7 8 7 7 7 6 6 6 4 6 8 8 7 7 5 4 3 3 2 1 1 1 1 1 3 4 4 5 6 5 4 4 6 0 3 4 3 5 7 4 4 4 4 4 4 4 5 4 5 4 5 3 4 4 4 4 4
8 6 6 7 7 5 4 1 5 9 12 8 2 8 13 13 12 12 11 10 10 7 7 8 9 10 10 11 6 9 8 7 4 4 9 8 9 7 7 7 6 6 6 7 6 6 6 6 5 4 6 6 6 5 5 5 4 3 3 3 2 2 2 2 2 3 4 4 5 6 7 7 8 10 6 5 5 6 5 5 5 5 4 4 3 3 2 3 5 5 4 5 2 5 5 4 4
15 12 9 9 9 11 10 10 7 12 6 7 8 9 14 15 13 12 13 14 11 9 8 7 8 10 8 9 6 8 7 7 5 5 8 7 7 7 7 6 6 6 5 6 6 6 7 6 4 3 5 5 6 5 5 4 4 4 4 3 3 2 2 1 0 1 3 4 5 5 7 6 5 4 6 6 5 5 5 4 4 3 3 2 2 3 4 4 5 3 3 3 5 4 3 6 5
17 13 11 11 12 11 12 16 8 12 4 5 8 8 14 15 13 13 14 14 12 12 10 8 8 9 8 7 7 8 9 8 7 8 8 9 8 7 7 6 6 6 6 7 6 6 6 7 6 5 4 5 6 6 4 4 3 3 3 3 3 3 1 1 3 2 1 3 4 5 5 5 6 6 5 5 5 4 3 3 3 4 3 3 3 4 5 5 3 2 2 1 3 6 5 5 4
15 14 13 11 14 12 14 15 9 11 7 5 7 3 11 13 13 12 11 13 14 14 13 11 10 10 8 9 9 9 9 6 9 7 9 8 8 8 8 7 6 8 6 8 7 7 6 6 7 5 4 5 5 5 5 4 2 4 3 3 3 3 4 2 4 2 4 4 4 6 3 2 4 5 6 5 4 3 3 3 3 3 3 3 3 4 4 3 2 2 1 2 2 3 3 2 2
9 8 10 8 9 9 11 11 10 10 9 10 10 8 11 12 12 12 11 12 11 13 15 13 12 11 9 8 11 10 8 9 9 8 10 7 9 9 7 8 7 8 9 9 7 7 6 6 7 5 4 5 5 5 5 4 2 3 3 3 4 2 2 3 4 4 5 4 2 1 2 4 4 3 3 3 4 4 4 3 3 2 2 2 3 4 3 3 2 3 2 2 4 2 3 2 3
8 4 5 8 9 14 5 11 13 12 7 10 12 9 9 9 10 13 11 11 6 13 16 16 15 15 13 11 12 11 9 12 11 11 12 10 10 9 7 8 8 6 8 7 7 8 6 6 5 6 5 5 5 5 4 3 4 3 3 4 5 4 3 3 1 2 5 6 7 4 6 4 4 3 3 3 3 3 3 2 2 2 3 2 3 3 3 2 1 2 2 2 2 3 1 2 1
8 9 4 3 11 15 17 12 12 11 8 14 11 7 5 8 7 9 9 12 11 13 15 14 15 15 15 12 13 14 12 13 12 12 12 11 10 10 10 9 9 8 8 8 8 8 6 7 6 7 6 6 5 4 4 5 4 3 3 1 0 1 2 3 4 4 3 3 4 4 3 4 4 3 3 3 3 2 1 1 1 1 2 3 3 3 2 2 2 2 1 1 2 2 4 1 1
5 8 7 5 10 15 19 18 13 8 8 9 15 4 5 5 7 11 9 10 9 12 14 14 15 14 15 14 15 14 12 14 15 13 14 12 12 9 9 8 11 9 9 9 8 8 7 6 6 6 5 5 6 6 6 5 4 5 3 2 2 4 2 3 3 2 3 3 2 2 3 3 3 3 3 2 1 0 0 1 1 1 2 2 1 1 1 2 1 1 2 2 2 2 2 1 3
5 4 6 7 6 3 14 18 12 8 10 9 15 12 4 4 8 10 6 8 11 7 15 14 15 14 15 14 15 15 14 13 14 13 14 13 12 12 12 11 11 10 9 8 9 9 8 7 7 7 6 6 6 5 6 6 5 4 4 3 4 3 2 0 1 3 1 1 2 2 2 1 3 2 1 0 0 1 0 1 1 1 0 0 0 1 2 3 3 1 1 0 2 1 1 2 3
7 2 7 6 6 7 15 21 14 5 3 5 14 8 9 4 8 10 8 6 6 4 12 14 15 15 15 13 17 16 15 15 15 15 15 14 13 14 14 13 10 12 10 10 9 8 9 9 8 7 6 6 5 6 6 6 6 4 4 4 4 3 2 3 1 0 2 3 2 1 0 0 0 1 0 0 2 2 1 1 1 0 1 1 0 1 3 3 2 1 0 1 0 2 2 2 3
4 6 6 7 9 12 11 13 9 5 10 5 10 11 6 5 7 8 9 6 5 8 9 13 15 16 15 15 17 17 17 17 16 15 16 15 15 14 13 12 10 12 11 11 10 9 9 9 8 7 7 7 6 6 6 5 5 5 5 4 4 2 2 2 2 2 2 1 1 1 2 1 2 2 2 3 3 2 1 1 0 1 1 1 0 1 1 2 2 2 2 2 2 2 1 2 3
5 11 6 4 9 11 4 7 6 4 8 6 10 11 5 5 5 7 7 10 12 13 11 10 15 16 16 15 15 17 15 16 16 16 16 14 15 15 14 13 10 13 12 11 10 9 9 9 9 9 8 7 7 6 6 6 5 6 5 4 4 3 2 1 1 1 1 2 3 2 2 3 1 2 2 1 2 2 2 2 2 2 2 1 0 1 1 2 3 3 2 2 1 1 1 2 2
1 7 7 9 4 6 3 4 4 4 1 2 7 13 10 3 7 13 11 15 17 13 8 6 11 15 16 17 15 16 14 16 15 15 15 14 15 15 14 14 10 12 11 12 11 11 10 10 10 10 9 8 7 7 6 6 5 6 5 5 5 5 4 3 3 0 0 2 2 2 3 2 0 3 1 1 2 1 3 2 3 1 1 0 1 2 2 2 2 1 2 2 1 1 3 2 2
9 4 7 7 4 2 3 1 3 2 2 4 5 4 14 7 5 9 17 21 21 18 16 17 13 17 15 13 12 15 14 15 16 14 14 13 13 14 15 13 12 13 12 12 11 11 10 10 10 11 9 9 7 7 7 6 7 5 4 5 4 4 4 4 2 2 2 1 3 2 2 1 1 1 0 2 1 2 3 2 1 0 1 1 1 1 1 2 1 2 1 1 1 1 1 1 1
7 5 2 2 1 4 2 2 2 1 3 2 4 4 5 6 10 19 20 16 18 17 18 20 17 15 14 13 13 13 13 16 15 14 14 13 14 16 15 13 13 14 13 14 13 12 11 11 12 12 11 10 9 7 7 7 7 6 5 5 5 4 4 4 3 2 2 2 2 2 1 0 0 0 1 1 1 2 1 1 0 1 1 1 2 1 0 1 0 1 1 1 2 3 3 2 1
4 5 4 3 1 1 1 1 1 2 3 4 5 5 7 2 3 18 22 20 18 21 17 16 16 16 15 15 13 12 14 16 16 15 14 14 14 15 15 13 13 13 14 14 13 12 11 10 11 12 11 11 9 8 7 8 7 7 6 5 5 5 4 3 4 3 2 3 3 2 2 2 2 2 2 1 1 0 0 1 0 0 1 2 1 2 1 1 2 2 2 2 2 3 2 2 2
7 5 9 5 4 4 4 2 4 6 8 4 6 4 3 5 4 2 17 20 15 13 13 16 19 18 17 15 14 13 14 14 15 14 14 15 15 16 15 14 14 13 14 13 12 12 11 11 11 12 10 10 10 10 7 8 8 7 6 6 6 5 4 3 3 4 3 1 2 3 3 3 3 3 3 2 1 0 1 0 0 1 2 2 0 1 2 2 2 0 1 1 1 2 0 0 2
8 7 8 2 3 3 2 5 4 3 2 4 2 4 7 7 5 1 12 16 11 15 16 9 14 12 12 11 12 13 12 14 14 14 14 15 15 15 15 13 14 13 14 13 13 12 12 13 12 13 13 12 11 10 8 8 7 6 6 6 6 5 4 4 3 2 3 3 2 3 2 2 3 3 3 3 2 2 1 0 0 2 2 2 2 1 1 1 1 0 2 1 2 2 2 2 3
5 4 5 2 2 3 3 1 4 3 1 4 1 2 0 2 1 7 16 16 16 13 9 13 13 11 12 12 14 14 12 13 14 14 13 16 15 16 15 15 14 15 14 14 14 14 14 13 12 11 10 9 10 10 8 7 7 6 7 6 6 5 6 5 5 4 4 3 4 2 2 2 3 2 2 3 3 3 2 2 2 2 3 3 3 3 3 3 3 2 2 2 3 3 3 3 3
2 5 6 4 5 2 2 2 1 4 4 3 7 8 4 5 2 3 17 17 11 8 9 14 16 16 16 12 12 13 13 13 15 15 15 18 17 18 16 15 17 17 16 14 13 13 13 13 13 13 11 12 10 9 8 7 7 7 7 7 6 7 6 6 5 4 3 3 2 2 3 3 4 3 3 2 3 2 2 3 2 3 3 3 3 3 4 3 3 2 3 3 4 3 3 3 2
5 8 12 7 6 11 1 1 1 2 4 2 3 4 4 10 5 7 9 16 11 11 11 10 13 14 12 11 12 12 9 12 12 13 13 14 14 16 16 16 16 16 15 14 12 12 10 9 11 12 13 12 12 9 8 7 7 6 7 7 6 5 5 4 4 3 3 3 1 2 3 4 3 2 1 2 2 2 2 3 3 2 3 3 3 2 2 2 1 1 1 2 2 2 2 3 3
4 4 6 10 2 8 5 6 3 6 2 1 3 4 1 2 3 11 8 12 10 11 12 13 14 12 10 9 10 12 10 12 11 11 12 14 15 16 17 17 17 16 15 13 13 11 12 11 11 9 8 8 8 9 8 8 7 6 6 6 5 6 5 5 4 4 3 2 3 4 4 4 4 3 3 3 2 4 4 4 3 3 2 1 1 2 1 2 2 2 3 3 3 3 3 3 3
4 4 3 5 5 4 6 3 5 5 3 4 1 2 4 6 3 9 10 10 10 11 10 6 10 13 12 10 11 8 9 12 13 12 13 14 15 15 15 16 14 13 12 12 13 14 12 10 10 10 11 11 10 10 9 8 7 6 7 6 6 6 6 5 4 4 4 4 4 4 4 5 3 3 3 4 4 5 5 4 4 3 3 2 2 3 2 3 3 3 3 3 3 3 4 2 3
4 6 6 4 4 0 8 6 4 3 4 2 2 1 5 4 3 6 8 7 8 8 9 7 8 6 8 11 10 10 8 9 13 14 14 14 13 13 13 12 11 12 13 14 13 12 13 12 12 11 11 11 11 9 9 8 7 7 7 7 7 6 6 5 5 5 5 5 4 5 6 4 4 5 5 6 6 5 4 4 4 4 4 4 3 3 3 1 1 1 2 2 2 3 1 1 3
Wind_Direction
210 213 215 201 202 245 234 204 12 7 86 53 59 56 80 55 54 73 88 104 79 64 73 73 67 60 73 100 99 72 22 71 338 151 133 142 140 157 183 158 140 128 122 124 123 124 136 136 125 122 121 120 116 116 124 125 116 112 109 108 109 109 114 119 125 126 126 127 125 123 122 121 121 124 125 124 124 124 123 118 115 112 108 105 103 103 105 104 100 99 99 99 99 96 95 94 94
208 206 203 202 205 193 273 116 97 286 62 65 53 54 57 70 72 66 67 80 79 97 95 84 85 88 89 91 102 75 27 26 62 86 72 99 123 155 178 148 136 128 125 124 124 129 131 131 126 122 124 128 131 136 128 117 112 111 110 111 111 114 116 117 117 119 120 122 123 125 126 127 126 127 126 127 126 127 126 124 120 115 111 108 108 109 107 105 102 100 102 101 98 98 98 98 97
240 234 211 185 223 216 313 82 343 78 68 64 51 62 79 89 93 82 86 86 99 102 90 83 87 86 85 73 39 76 76 34 72 68 85 125 128 174 158 140 130 127 127 129 128 122 119 130 131 132 134 136 134 128 121 118 116 114 115 115 114 116 116 117 117 118 121 123 125 126 126 127 129 130 132 132 132 130 129 126 121 118 118 118 117 115 114 111 110 108 105 101 99 100 99 102 102
283 291 273 184 236 183 195 58 235 98 78 127 100 110 104 89 78 82 76 79 85 86 95 100 87 89 84 74 96 80 94 66 73 115 117 162 159 155 155 139 133 131 125 125 131 126 118 134 135 132 131 132 130 126 122 121 119 117 117 117 116 116 116 116 118 120 122 123 123 125 126 128 129 131 132 131 131 130 127 124 123 123 122 122 120 118 116 112 108 104 100 100 100 99 101 99 102
221 261 217 267 98 307 126 214 110 71 74 70 94 85 90 102 104 100 98 98 98 96 89 88 91 80 86 103 122 84 107 104 105 107 130 134 145 146 139 132 131 131 125 123 119 119 131 143 141 136 133 134 131 128 125 123 121 119 117 117 116 115 115 116 117 120 121 121 123 122 123 125 126 127 126 127 127 127 127 126 125 125 123 121 119 114 110 107 103 101 98 96 99 100 99 100 104
220 246 275 252 160 356 36 355 45 81 85 70 82 100 83 71 84 86 82 77 76 74 76 76 84 100 84 74 90 112 144 124 144 116 136 136 148 140 138 138 135 133 125 119 124 129 135 143 142 136 132 132 130 129 127 124 122 120 118 116 115 114 114 117 119 121 121 121 119 119 121 122 122 123 124 124 124 124 123 122 121 119 116 115 114 112 110 108 106 102 100 98 95 97 99 108 111
202 154 169 212 303 148 199 108 87 91 98 114 106 97 93 98 101 102 96 87 87 97 99 109 110 102 86 94 89 115 108 119 128 134 136 143 135 142 143 137 132 120 123 126 126 129 143 142 141 139 137 134 132 132 129 125 124 121 118 116 114 114 116 118 119 119 119 118 118 119 120 122 123 124 124 123 122 121 119 117 115 114 112 112 113 113 111 107 104 101 99 102 104 103 108 112 118
253 37 197 102 271 64 327 63 63 51 76 94 123 118 122 125 121 115 116 116 109 87 79 80 81 84 76 85 101 110 122 121 120 126 131 139 143 144 136 130 127 125 123 125 131 140 142 143 143 143 138 135 134 132 130 129 124 123 121 118 117 119 121 122 121 119 117 117 119 121 124 125 124 123 120 120 117 115 113 113 113 110 111 111 111 108 104 103 103 103 104 104 109 109 112 106 114
242 181 321 30 13 354 43 72 97 62 77 71 77 91 93 94 101 101 96 104 111 101 94 98 111 92 110 103 96 118 102 120 124 131 137 141 143 139 133 139 134 124 124 127 135 141 141 147 146 145 141 137 134 133 131 130 128 126 122 120 121 124 127 125 122 121 119 120 121 124 123 121 119 118 118 115 115 113 113 113 112 112 110 110 107 103 103 101 105 109 111 118 120 149 131 139 153
294 100 346 86 338 66 79 65 49 131 121 107 101 107 121 115 84 77 84 82 86 91 91 89 86 97 113 102 109 111 124 128 136 139 143 144 142 138 140 141 130 129 128 132 133 136 149 147 147 145 143 138 134 132 132 131 128 126 124 124 128 130 130 130 126 122 123 123 123 123 122 122 120 119 116 117 117 117 116 112 112 111 107 104 101 103 105 107 102 102 99 95 96 94 148 170 197
6 0 107 56 21 28 20 87 116 88 79 92 96 84 76 75 85 93 94 101 103 104 109 113 103 113 109 97 89 122 132 138 144 143 145 147 145 141 140 134 133 131 132 135 136 142 142 142 142 141 139 136 134 135 136 133 130 129 129 133 134 134 133 131 129 129 127 126 126 125 123 121 120 119 118 117 118 118 115 115 115 116 114 110 110 114 122 120 122 131 127 122 125 114 102 120 282
50 20 29 54 74 178 306 308 77 91 109 104 84 99 105 106 109 106 111 115 124 122 114 116 107 118 102 108 108 118 134 139 137 142 145 143 140 134 134 134 135 134 132 132 133 132 133 139 136 143 142 142 139 139 136 134 133 136 137 139 139 137 135 134 132 130 129 129 128 127 123 122 122 122 121 123 126 127 125 124 127 121 125 130 131 136 138 134 143 149 166 161 163 214 213 230 224
120 148 86 87 215 126 228 83 82 83 66 104 158 114 124 116 117 129 126 109 102 105 105 107 125 128 115 113 132 127 131 139 141 145 140 134 133 130 135 135 135 134 131 130 131 134 137 136 146 144 147 147 145 143 140 139 140 141 143 141 141 141 139 137 137 134 132 133 133 129 129 128 127 128 130 131 131 130 127 133 138 147 149 152 157 161 157 157 168 194 201 211 209 216 248 240 243
135 188 137 194 135 227 139 121 28 37 93 100 79 73 77 109 110 102 101 101 107 110 131 137 119 108 106 121 130 132 140 133 137 139 139 135 140 140 134 130 130 130 134 136 134 140 144 144 142 144 145 141 142 143 143 144 144 144 145 145 143 144 143 142 140 139 139 138 137 136 134 135 136 137 140 144 144 141 149 157 169 166 177 178 174 183 196 175 190 211 229 227 237 233 237 245 257
184 143 114 101 123 182 134 102 162 51 222 94 86 111 141 90 93 91 105 116 117 128 121 115 124 125 146 143 141 137 140 141 136 135 137 148 136 133 132 128 129 132 133 135 141 145 144 142 139 138 141 143 140 136 141 148 147 147 147 149 149 148 149 147 144 142 143 146 143 142 144 142 144 149 152 155 160 161 164 174 183 202 197 200 202 205 215 208 209 222 229 237 247 251 249 254 261
192 164 120 123 210 178 185 107 135 169 142 122 96 82 87 102 114 121 121 114 115 120 132 134 163 117 143 134 132 130 135 136 130 125 121 121 121 122 124 132 133 130 132 141 144 145 143 139 138 142 141 139 139 138 144 145 152 152 152 154 155 155 154 151 150 149 149 151 152 146 149 153 157 164 167 169 173 182 186 189 203 212 217 213 216 214 217 226 229 236 241 243 250 254 253 259 266
226 147 111 154 185 158 225 113 116 330 123 121 140 118 93 80 79 86 119 130 139 151 135 143 116 137 136 124 119 125 126 113 121 122 115 110 117 124 128 126 126 136 144 148 149 148 144 140 145 144 149 148 149 148 149 151 159 159 160 159 159 160 157 155 153 154 154 156 153 154 155 162 184 186 190 181 199 198 199 207 226 219 219 225 221 226 234 240 244 248 251 252 258 261 259 261 267
201 216 215 198 131 159 187 145 141 192 133 132 112 108 121 126 133 133 139 134 105 101 112 117 114 101 113 119 125 130 128 130 122 121 125 123 127 134 136 135 140 149 152 152 152 153 142 147 153 152 152 162 158 149 152 158 162 158 150 154 151 164 163 160 153 160 163 170 166 167 157 214 198 147 166 208 209 202 213 219 222 224 222 235 247 250 250 251 249 249 253 261 267 274 279 276 261
138 264 130 143 147 179 187 151 172 135 136 138 134 135 109 93 121 136 135 99 97 92 89 98 101 108 115 127 133 141 141 124 131 137 144 141 143 142 142 146 144 144 148 149 151 148 149 153 154 158 158 167 153 149 151 154 163 149 150 155 161 162 182 163 157 177 170 170 179 169 178 169 167 158 174 214 212 217 217 232 237 235 238 238 247 252 258 263 264 264 258 262 267 277 283 273 250
219 160 77 99 108 162 222 87 98 140 120 112 115 103 105 111 96 69 99 101 97 108 116 111 116 127 130 126 133 132 125 132 137 148 145 150 145 149 152 151 142 150 149 153 148 145 150 156 154 153 159 163 145 156 149 152 162 159 161 165 169 168 180 175 175 171 151 146 173 152 158 169 171 172 226 238 246 265 272 269 270 265 259 277 278 281 274 272 275 274 271 262 260 232 255 261 253
222 92 78 29 107 113 129 146 141 130 130 139 124 119 122 132 123 117 126 118 120 122 130 134 138 134 133 136 138 134 138 141 152 148 147 144 146 145 150 149 150 146 153 142 140 148 150 149 147 152 161 166 147 152 150 155 165 165 155 168 168 180 170 177 162 159 176 175 179 179 184 189 174 158 188 226 339 294 154 50 57 63 191 233 275 265 250 252 311 300 272 268 238 233 234 239 242
170 136 141 100 79 102 115 95 135 138 135 128 101 99 97 124 128 129 119 117 140 139 136 131 131 136 138 143 144 145 146 154 154 149 148 156 159 146 147 153 145 145 139 139 151 150 148 149 150 157 164 168 161 158 159 169 163 157 152 168 172 184 168 176 172 173 160 170 184 203 195 177 149 185 184 165 131 35 8 24 120 154 129 224 245 243 236 191 254 274 259 228 218 218 233 242 236
88 65 82 80 76 88 96 133 150 121 119 100 106 109 105 83 83 112 112 140 130 126 129 130 132 138 140 146 147 149 154 161 159 148 156 166 156 151 152 152 149 143 146 145 150 151 148 151 155 160 168 170 174 166 158 163 142 153 151 165 172 202 170 177 167 164 173 182 188 232 175 168 180 168 166 160 154 157 218 217 209 205 208 211 220 220 228 216 214 228 240 222 176 179 215 195 166
103 79 91 105 120 107 176 134 111 91 98 99 108 121 110 123 102 95 99 74 112 120 124 127 135 141 149 146 153 151 154 165 152 147 165 157 154 147 145 141 139 152 141 147 153 154 156 156 154 164 168 176 174 165 158 157 133 147 161 174 190 198 173 182 180 173 172 185 196 214 225 199 183 176 185 175 189 176 219 219 227 221 234 225 236 207 202 218 226 222 215 221 218 226 210 215 200
98 140 129 90 80 82 71 76 82 87 86 96 87 88 90 109 115 111 87 105 114 118 125 132 138 144 148 152 150 150 154 158 147 160 165 157 145 148 140 145 150 153 138 153 150 149 163 154 157 157 166 172 167 153 123 128 141 140 161 167 209 201 178 175 175 172 170 218 218 208 223 203 186 206 196 181 161 204 229 219 203 220 230 230 235 250 234 230 245 274 264 213 202 208 210 242 218
116 95 105 106 119 102 96 120 109 92 87 84 84 87 94 101 125 107 124 110 116 121 130 134 138 148 155 153 142 141 164 154 146 163 149 148 148 148 145 156 158 156 151 151 152 156 163 151 159 158 165 169 172 120 140 132 136 131 165 185 245 189 146 149 161 185 182 204 209 215 234 198 195 201 196 176 173 208 214 226 209 205 207 210 221 235 231 213 218 238 242 206 184 206 205 224 217
110 127 107 146 121 116 151 97 102 104 101 103 109 108 101 119 121 104 108 118 122 129 129 138 146 151 157 143 141 154 169 157 147 163 134 157 148 150 147 143 156 145 161 153 155 160 154 152 165 163 166 169 159 147 150 190 162 167 152 133 271 220 159 128 150 211 224 206 213 210 221 204 190 201 202 190 186 201 207 203 215 202 200 201 200 215 215 205 210 211 213 212 189 195 217 209 197
127 119 138 91 113 102 94 88 103 117 116 121 125 130 132 94 100 115 123 129 132 131 139 146 147 153 144 134 138 174 162 164 148 147 142 175 161 148 153 146 154 147 159 149 155 159 156 162 169 166 166 171 164 183 163 167 187 170 152 123 301 283 201 177 167 200 226 230 224 225 202 218 182 190 192 199 213 222 243 260 261 230 227 210 193 202 210 209 208 221 232 239 238 210 205 212 197
128 135 116 148 132 106 123 138 148 125 133 138 139 133 122 144 121 141 133 140 137 140 148 147 149 149 130 131 154 175 167 162 152 138 153 165 168 155 151 147 147 151 151 149 153 154 166 172 169 164 161 170 172 172 170 159 166 169 158 147 185 227 247 234 202 188 192 189 195 203 194 206 204 183 186 199 210 244 257 254 248 232 233 232 217 211 212 204 200 211 228 230 240 254 255 246 220
142 126 119 168 132 123 177 141 135 152 135 139 154 102 130 116 134 134 150 145 143 148 156 145 151 129 128 134 164 185 175 155 152 149 150 163 157 160 145 149 145 147 152 144 152 164 168 177 161 157 159 164 169 168 161 150 161 166 157 165 175 190 212 230 239 242 247 261 250 211 247 226 205 185 188 202 202 221 232 237 238 251 257 336 327 274 233 207 212 206 229 210 232 226 232 236 233
139 121 107 153 126 173 144 149 151 142 158 155 167 117 124 143 143 147 158 148 148 153 152 149 144 129 130 136 162 187 168 155 154 144 132 154 144 155 159 152 137 146 151 144 158 179 170 165 159 150 158 156 163 181 156 153 170 171 174 176 175 174 175 191 212 214 206 236 309 267 225 241 184 24 3 337 319 231 219 240 248 249 258 268 277 276 271 246 227 241 216 222 230 236 238 240 236
141 112 164 139 135 173 154 150 179 143 185 169 144 111 141 147 150 155 153 154 147 158 154 154 144 135 137 140 169 182 161 176 163 153 139 145 150 154 164 154 140 140 153 154 149 166 133 140 140 148 152 158 166 174 155 161 176 158 125 131 141 152 154 185 159 173 184 128 179 241 226 199 61 203 177 122 97 294 282 245 236 244 262 264 263 264 262 270 264 251 241 218 249 250 240 249 225
137 140 127 119 87 270 167 149 198 143 151 143 120 134 137 150 152 148 177 160 157 163 153 158 144 144 141 148 178 159 159 190 181 164 143 151 143 138 110 114 109 125 139 145 138 129 107 94 110 133 145 156 162 161 156 155 148 105 110 100 115 124 131 81 12 43 115 150 189 197 203 139 148 143 175 187 185 240 276 270 265 251 242 235 242 246 253 251 254 261 250 225 217 249 239 249 244
121 147 144 148 174 183 282 149 189 127 138 151 206 144 150 147 149 149 173 166 154 168 160 168 149 149 147 154 181 153 160 180 170 157 133 115 117 114 115 111 109 111 116 123 129 123 127 119 106 126 145 156 157 161 158 154 139 130 128 163 142 101 79 72 68 87 87 108 125 128 97 96 85 164 231 216 194 228 244 256 266 263 251 234 233 231 242 259 258 256 270 252 226 241 251 243 246
145 183 155 163 169 183 131 191 168 159 170 152 150 104 130 148 151 157 166 159 165 164 178 163 145 144 151 160 173 153 158 167 181 167 129 126 118 122 118 120 117 115 121 125 129 117 118 126 122 132 133 141 148 149 143 143 150 153 163 176 107 76 60 57 80 78 94 108 127 131 145 155 176 182 192 205 211 226 239 243 250 258 257 243 226 242 288 278 273 271 298 288 278 242 253 255 260
157 182 173 163 170 182 172 195 201 176 149 147 141 144 144 155 161 165 166 160 176 165 180 151 142 146 150 162 158 155 161 165 178 163 135 125 130 133 131 132 128 132 127 127 132 128 128 131 144 137 151 145 139 131 136 145 149 161 137 71 59 60 76 59 75 145 129 158 165 167 169 176 185 170 186 205 205 211 223 237 249 260 249 233 257 264 255 252 250 273 264 288 297 300 309 294 290
168 175 180 181 171 182 178 175 199 161 182 169 153 146 154 156 165 169 168 166 168 167 170 159 151 152 157 167 165 161 159 174 169 152 138 136 143 140 140 139 143 139 138 140 138 141 141 144 145 147 157 127 140 144 147 163 131 110 87 120 141 153 155 193 217 225 170 207 195 178 187 176 163 167 185 196 201 215 219 244 257 277 275 261 254 251 250 258 264 231 259 229 268 286 276 236 240
182 179 184 185 182 176 177 170 162 152 155 149 134 172 155 156 168 169 170 170 168 167 165 163 159 160 164 174 169 164 162 156 154 136 149 151 158 153 147 152 153 152 154 150 149 150 154 144 145 149 126 135 133 140 138 121 132 155 153 182 159 182 198 204 257 242 201 224 196 194 192 159 149 173 185 189 192 192 217 231 241 255 272 277 261 258 259 253 279 298 240 277 208 228 255 258 279
249 200 197 175 192 145 154 161 174 174 138 164 153 184 155 162 168 169 176 176 174 168 164 167 161 165 171 180 166 160 167 164 161 153 156 167 163 161 149 162 163 161 158 153 153 144 144 138 147 141 130 116 126 137 136 139 141 146 141 175 159 198 212 199 206 211 200 213 177 102 139 149 161 178 181 187 182 198 209 219 246 259 299 297 325 315 279 262 250 245 240 232 300 269 258 255 243
258 273 192 182 159 136 180 180 185 181 159 174 168 157 152 158 169 172 172 178 171 165 165 163 164 169 175 178 165 166 172 162 170 167 168 175 173 167 161 163 165 158 154 155 151 145 147 143 149 147 136 132 138 144 139 144 150 169 180 180 180 165 176 198 197 29 29 43 70 90 80 97 100 102 81 43 28 33 71 84 52 27 342 332 311 310 309 294 212 254 261 258 231 283 256 283 197
255 249 235 226 173 164 167 172 188 152 162 168 155 124 160 160 172 171 176 179 167 161 168 159 167 170 175 168 168 169 171 169 171 172 168 179 172 176 174 170 168 167 161 163 155 155 160 161 159 156 157 150 160 160 156 154 166 148 143 137 78 82 22 26 47 29 54 40 92 72 87 72 72 72 67 69 80 87 89 98 85 359 348 329 333 338 0 308 250 241 236 262 243 276 302 310 315
261 246 244 210 200 169 170 153 169 151 183 185 147 107 210 219 181 172 182 179 180 166 169 162 167 169 169 169 172 173 178 169 173 173 170 179 173 175 176 171 172 166 168 167 154 156 155 165 162 162 160 151 162 174 165 157 148 138 117 101 72 66 53 42 84 94 33 35 31 75 74 87 94 82 90 86 70 114 273 134 107 62 10 358 21 32 300 321 302 269 255 242 262 238 219 285 287
251 250 242 265 270 330 143 155 158 172 188 187 159 146 206 245 194 185 176 179 183 179 170 166 167 170 173 168 171 176 179 167 173 171 168 178 178 175 178 180 174 171 169 155 151 158 159 166 164 165 160 151 152 145 135 129 121 129 142 151 143 143 140 191 148 131 131 197 96 60 79 45 105 101 77 97 338 269 166 123 103 111 261 227 178 34 333 303 292 239 261 164 225 182 118 275 278
249 231 208 236 281 272 169 167 172 163 170 191 169 149 145 206 228 189 181 163 180 194 179 171 169 175 175 171 171 178 176 168 170 175 175 181 179 175 178 180 172 169 158 154 157 164 164 164 158 155 149 142 139 140 129 137 135 136 131 124 112 119 145 185 186 221 119 117 108 135 236 331 152 122 171 277 277 274 156 151 146 185 258 279 147 313 303 291 297 336 47 296 219 169 176 220 277
212 263 199 216 237 242 185 177 166 161 171 229 194 134 90 196 217 192 161 162 210 214 206 184 173 175 176 175 171 177 172 171 169 171 177 179 177 174 174 178 169 160 159 160 165 167 159 152 144 139 140 141 146 143 142 140 145 138 134 125 124 158 156 162 131 132 144 145 124 232 132 150 67 34 0 335 307 269 193 195 142 49 64 355 156 272 282 318 314 281 262 295 247 211 148 231 249
214 255 273 268 221 251 81 168 161 183 162 226 204 175 152 200 179 165 188 186 200 210 204 198 177 178 176 178 173 175 169 171 172 171 173 174 174 173 172 172 161 162 162 158 159 154 153 144 145 144 148 149 155 151 146 143 134 123 126 137 155 177 152 158 128 205 225 158 164 154 123 77 72 350 322 296 339 326 9 67 90 86 65 58 339 270 255 296 293 282 255 232 256 269 180 225 223
235 223 266 281 214 213 205 153 112 50 34 254 215 180 173 176 199 175 170 202 201 194 197 192 186 181 179 181 174 174 166 171 173 172 174 172 171 168 165 170 158 155 154 154 156 156 152 150 150 150 158 155 159 159 150 147 140 140 147 167 169 166 173 148 132 278 148 106 138 152 114 149 277 260 222 264 253 358 102 82 64 55 94 86 345 329 283 259 279 354 23 40 32 219 248 239 247
223 195 213 233 298 25 33 341 80 123 249 259 263 226 182 205 232 211 198 200 195 182 186 194 184 186 184 179 175 169 166 170 172 171 173 164 161 162 164 166 154 156 153 154 157 155 156 156 153 153 160 162 162 162 155 154 149 161 166 158 156 165 150 135 147 185 171 169 157 147 172 127 264 250 250 288 328 99 81 54 10 79 307 239 251 246 320 341 25 43 29 346 313 293 241 254 251
234 232 290 135 239 187 308 30 326 235 198 239 299 311 295 240 189 197 211 208 194 185 186 189 187 183 180 179 178 166 165 168 170 172 169 163 162 162 165 163 154 158 160 160 161 160 161 161 160 159 168 165 165 164 160 161 157 172 162 154 151 148 142 153 167 164 200 153 150 110 116 136 37 22 313 65 62 78 71 42 325 311 289 264 230 158 128 24 255 260 242 258 283 296 284 261 232
217 206 216 148 111 101 176 258 210 284 299 239 252 279 255 245 250 189 196 205 191 190 187 182 186 187 176 178 178 163 165 169 172 171 170 166 162 164 163 161 160 162 162 162 162 163 165 167 167 167 170 168 161 166 166 164 171 172 168 161 157 150 153 150 163 161 164 157 157 172 190 184 184 202 211 174 184 131 119 224 208 305 280 263 221 168 180 218 251 241 244 258 265 274 281 276 281
227 186 206 158 157 155 175 170 184 208 225 246 223 239 209 271 259 244 198 198 185 177 179 187 190 187 180 175 174 165 165 169 171 170 169 166 164 162 164 160 163 165 165 162 165 167 167 171 171 170 166 169 163 167 170 169 175 172 163 152 143 150 152 147 162 151 160 189 198 199 208 196 189 226 201 204 172 173 242 179 65 338 304 296 292 186 205 224 242 318 0 285 280 267 179 245 284
209 199 189 211 234 138 181 198 183 216 232 258 267 228 188 210 233 64 158 169 145 183 193 169 180 175 170 170 172 174 169 168 170 169 165 164 161 161 162 161 162 165 169 167 168 168 173 176 174 173 170 170 166 168 173 171 174 162 153 148 156 159 147 143 147 166 185 191 193 177 190 219 245 218 208 182 211 219 188 157 193 256 264 287 285 258 222 213 174 189 279 291 294 269 264 255 254
228 91 174 204 207 121 188 216 201 210 300 253 234 299 356 342 338 111 124 142 163 175 157 163 175 158 156 170 179 180 173 167 169 169 163 164 161 164 165 163 165 167 171 174 174 174 174 173 173 172 170 171 168 170 168 168 167 159 160 158 162 156 156 156 174 198 210 205 185 189 189 230 234 232 230 200 208 178 180 205 225 224 241 249 247 256 249 219 203 208 238 271 278 275 257 264 265
150 167 210 167 262 247 133 206 189 191 179 248 197 226 230 142 260 253 134 149 169 138 158 156 162 163 171 174 177 178 174 170 171 170 166 166 165 166 167 167 169 171 173 172 177 176 175 174 172 169 170 170 175 165 166 167 166 165 165 165 166 163 170 176 176 177 180 164 175 188 225 249 252 211 196 219 191 202 204 229 216 232 234 245 249 249 251 234 216 197 204 222 240 249 269 278 262
171 191 156 170 184 250 164 101 265 194 220 250 268 215 229 182 213 154 158 142 146 128 126 140 154 159 163 167 173 173 151 162 167 166 161 164 164 167 168 170 172 172 171 171 169 170 173 174 176 170 174 175 172 167 163 167 166 167 167 167 168 170 167 167 163 153 133 138 181 233 232 235 221 221 188 175 157 187 216 231 208 222 250 257 252 235 219 226 205 201 217 248 271 267 270 275 268
247 146 181 174 145 195 187 179 197 124 195 62 287 293 264 293 231 157 168 143 140 124 120 144 153 149 152 161 160 160 151 162 161 164 164 165 167 169 168 168 171 172 171 167 166 168 174 175 174 170 167 172 167 166 164 168 170 159 161 159 167 169 168 169 167 155 158 171 219 229 234 239 254 250 195 177 203 235 229 221 208 209 234 261 292 264 240 238 224 210 213 225 244 251 261 251 264
229 229 186 178 215 167 184 192 186 157 177 158 199 347 308 287 275 143 144 138 137 134 135 141 153 155 159 158 163 160 161 161 164 165 168 169 170 169 170 172 169 165 164 163 168 172 172 168 175 172 166 172 177 173 164 166 162 160 158 164 167 162 163 160 157 160 174 198 218 234 239 235 224 230 216 208 218 227 222 206 206 204 200 217 226 251 246 239 236 233 224 221 236 241 247 291 288
203 189 207 174 191 324 168 259 195 208 109 185 130 215 264 311 3 90 104 112 101 112 123 124 131 138 146 158 162 162 166 167 168 168 166 173 170 167 166 163 161 162 168 171 171 168 171 172 175 175 170 174 178 174 170 164 160 160 162 168 169 166 166 169 174 189 195 203 215 228 231 225 226 239 218 218 223 230 217 214 208 205 201 206 215 219 227 194 219 234 260 233 234 238 239 113 257